Regional Weather Roundup
Issued by NWS Charleston, WV

Home | Current Version | Previous Version | Text Only | Print | Product List | Glossary On
Versions: 1 2 3 4 5 6 7 8 9 10 11 12 13 14 15 16 17 18 19 20 21 22 23 24 25 26 27 28 29 30 31 32 33 34 35 36 37 38 39 40 41 42 43 44 45 46 47 48 49 50
000
ASUS41 KRLX 211310
RWRRLX
West Virginia Regional Weather Roundup
National Weather Service Charleston WV
900 AM EDT FRI JUL 21 2017

Note: "fair" indicates few or no clouds below 12,000 feet with no
significant weather and/or obstructions to visibility.

WVZ003-211400-
Northern Panhandle of West Virginia

CITY           SKY/WX    TMP DP  RH WIND       PRES   REMARKS
WHEELING       CLOUDY    76  72  87 S3        30.02R
$$

WVZ009-211400-
Northwest West Virginia

CITY           SKY/WX    TMP DP  RH WIND       PRES   REMARKS
PARKERSBURG    CLOUDY    77  74  90 S3        30.04R FOG
$$

WVZ006-211400-
Western West Virginia

CITY           SKY/WX    TMP DP  RH WIND       PRES   REMARKS
HUNTINGTON     MOSUNNY   80  73  79 S6        30.03S
$$

WVZ015-211400-
West Central West Virginia

CITY           SKY/WX    TMP DP  RH WIND       PRES   REMARKS
CHARLESTON     CLOUDY    80  71  74 CALM      30.05R
$$

WVZ022-031-211400-
North Central West Virginia

CITY           SKY/WX    TMP DP  RH WIND       PRES   REMARKS
CLARKSBURG     MOSUNNY   78  71  79 SW6       30.04R
MORGANTOWN     CLOUDY    75  71  87 S5        30.04S
$$

WVZ025-035-042-045-211400-
Southern West Virginia

CITY           SKY/WX    TMP DP  RH WIND       PRES   REMARKS
BECKLEY        SUNNY     75  67  76 W6        30.15S
LOGAN            N/A     75  72  88 CALM      30.11R
BLUEFIELD      SUNNY     71  65  81 W6        30.18S
LEWISBURG      CLOUDY    69  67  94 SW3       30.15R FOG
$$

WVZ047-211400-
Northern Mountains of West Virginia

CITY           SKY/WX    TMP DP  RH WIND       PRES   REMARKS
ELKINS         CLOUDY    74  68  81 VRB3      30.10S
$$

WVZ052-211400-
Eastern Panhandle of West Virginia

CITY           SKY/WX    TMP DP  RH WIND       PRES   REMARKS
MARTINSBURG    MOSUNNY   84  70  62 S5        29.99R
PETERSBURG     MOSUNNY   82  72  71 CALM      30.02F
$$



USA.gov is the U.S. government's official web portal to all federal, state and local government web resources and services.